{"data":{"norad_id":41394,"intl_designator":"2016-020A","name":"COSMOS 2515","alt_names":[],"object_type":"PAYLOAD","status":"ACTIVE","operator":null,"country":"CIS","launch_date":"2016-03-24","launch_site_code":"PLMSC","launch_vehicle":null,"mission":null,"orbit_class":"UNKNOWN","rcs_meters":5.618,"size_class":null,"mass_kg":null,"dimensions":null,"purposes":[],"wikipedia_slug":null,"has_3d_model":false,"image_url":null,"decayed_at":null,"tle_current":{"epoch":"2026-05-25T02:14:01.642848Z","epoch_age_seconds":77200,"freshness":"FRESH","line1":"1 41394U 16020A   26145.09307457  .00001379  00000+0  93964-4 0  9997","line2":"2 41394  97.9775 159.7001 0024261  24.5429 335.6947 15.07866245556930","mean_motion":15.07866245,"eccentricity":0.0024261,"inclination_deg":97.9775,"raan_deg":159.7001,"arg_perigee_deg":24.5429,"mean_anomaly_deg":335.6947,"bstar":9.3964e-5,"rev_number":55693,"period_min":95.499186666918,"perigee_km":525.93067558297,"apogee_km":559.51206456624,"semimajor_km":6920.8583700746,"source":"CELESTRAK","updated_at":"2026-05-25T13:37:55.615429Z"}}}